Weather History for Grove, OK

Change the Weather History Date:

Thursday, February 7, 2013

  Actual Average (KSLG) Record (KSLG)
Temperature  
Mean Temperature 48 °F -  
Max Temperature 55 °F 46 °F 66 °F (2009)
Min Temperature 41 °F 29 °F 6 °F (2003)
Degree Days  
Heating Degree Days 16    
Moisture  
Dew Point 49 °F    
Average Humidity 91    
Maximum Humidity 100    
Minimum Humidity 71    
Precipitation  
Precipitation 0.00 in - - ()
Sea Level Pressure  
Sea Level Pressure 29.96 in    
Wind  
Wind Speed 6 mph (NE)    
Max Wind Speed 14 mph    
Max Gust Speed 21 mph    
Visibility 8 miles    
Events Rain , Thunderstorm    
Averages and records for this station are not official NWS values.
T = Trace of Precipitation, MM = Missing Value Source: NWS Daily Summary

Daily Weather History Graph

Daily Weather History Graph

Search for Another Location

Airport:

Trip Planner

Search our weather history database for the weather conditions in past years. The results will help you decide how hot, cold, wet, or windy it might be!

Date:

Astronomy

Feb. 07, 2013 Rise Set
Actual Time 7:15 AM CST 5:51 PM CST
Civil Twilight 6:48 AM CST 6:18 PM CST
Nautical Twilight 6:17 AM CST 6:49 PM CST
Astronomical Twilight 5:47 AM CST 7:19 PM CST
Moon 4:52 AM CST (2/7) 3:19 PM CST (2/7)
Length of Visible Light 11h 30m
Length of Day
10h 36m
Waning Crescent, 9% of the Moon is Illuminated
Feb 7
Waning Crescent
Feb 10
New
Feb 17
First Quarter
Feb 25
Full
Mar 4
Last Quarter

Hourly Weather History & Observations

Time (CST) Temp. Windchill Dew Point Humidity Pressure Visibility Wind Dir Wind Speed Gust Speed Precip Events Conditions
12:15 AM 50.0 °F - 41.0 °F 71% 29.95 in 10.0 mi SE 3.5 mph - N/A   Scattered Clouds
12:35 AM 50.0 °F - 42.8 °F 76% 29.95 in 10.0 mi SE 5.8 mph - N/A   Mostly Cloudy
12:55 AM 50.0 °F - 42.8 °F 76% 29.95 in 10.0 mi SE 3.5 mph - N/A   Scattered Clouds
1:15 AM 50.0 °F - 42.8 °F 76% 29.94 in 10.0 mi SE 4.6 mph - N/A   Clear
1:35 AM 50.0 °F - 42.8 °F 76% 29.93 in 10.0 mi SE 5.8 mph - N/A   Mostly Cloudy
1:55 AM 51.8 °F - 44.6 °F 76% 29.93 in 10.0 mi SSE 6.9 mph - N/A   Overcast
2:15 AM 51.8 °F - 44.6 °F 76% 29.92 in 10.0 mi SE 8.1 mph - N/A   Overcast
2:35 AM 51.8 °F - 46.4 °F 82% 29.91 in 10.0 mi SSE 4.6 mph - N/A   Overcast
2:55 AM 53.6 °F - 50.0 °F 88% 29.91 in 10.0 mi SSE 8.1 mph - N/A   Overcast
3:15 AM 53.6 °F - 50.0 °F 88% 29.91 in 10.0 mi South 4.6 mph - N/A   Overcast
3:35 AM 53.6 °F - 50.0 °F 88% 29.91 in 10.0 mi South 6.9 mph - N/A   Overcast
3:55 AM 53.6 °F - 50.0 °F 88% 29.90 in 10.0 mi South 6.9 mph - N/A   Overcast
4:15 AM 53.6 °F - 50.0 °F 88% 29.90 in 10.0 mi South 8.1 mph - N/A   Overcast
4:35 AM 53.6 °F - 50.0 °F 88% 29.89 in 10.0 mi SSE 5.8 mph - N/A   Overcast
4:55 AM 53.6 °F - 50.0 °F 88% 29.89 in 10.0 mi SSE 5.8 mph - N/A   Overcast
5:15 AM 53.6 °F - 50.0 °F 88% 29.89 in 10.0 mi SSE 8.1 mph - N/A   Overcast
5:35 AM 53.6 °F - 50.0 °F 88% 29.88 in 10.0 mi SE 6.9 mph - N/A   Overcast
5:55 AM 53.6 °F - 50.0 °F 88% 29.88 in 7.0 mi South 4.6 mph - N/A   Overcast
6:15 AM 53.6 °F - 50.0 °F 88% 29.88 in 10.0 mi SSE 4.6 mph - N/A   Overcast
6:35 AM 55.4 °F - 51.8 °F 88% 29.88 in 10.0 mi SSE 8.1 mph - N/A   Overcast
6:55 AM 55.4 °F - 51.8 °F 88% 29.89 in 10.0 mi South 6.9 mph - N/A   Overcast
7:15 AM 53.6 °F - 50.0 °F 88% 29.88 in 10.0 mi SSE 6.9 mph - N/A   Overcast
7:35 AM 53.6 °F - 50.0 °F 88% 29.88 in 7.0 mi SSE 5.8 mph - N/A   Overcast
7:55 AM 53.6 °F - 50.0 °F 88% 29.88 in 7.0 mi SSE 5.8 mph - N/A   Overcast
8:15 AM 55.4 °F - 51.8 °F 88% 29.89 in 10.0 mi SSE 4.6 mph - N/A   Overcast
8:35 AM 55.4 °F - 51.8 °F 88% 29.89 in 10.0 mi SSE 4.6 mph - N/A   Overcast
8:55 AM 55.4 °F - 51.8 °F 88% 29.90 in 10.0 mi South 5.8 mph - N/A   Overcast
9:15 AM 55.4 °F - 51.8 °F 88% 29.91 in 7.0 mi SSW 4.6 mph - N/A Thunderstorm Overcast
9:35 AM 55.4 °F - 51.8 °F 88% 29.91 in 10.0 mi SSW 6.9 mph - N/A   Overcast
9:55 AM 55.4 °F - 51.8 °F 88% 29.92 in 7.0 mi WSW 4.6 mph - N/A   Overcast
10:15 AM 55.4 °F - 55.4 °F 100% 29.92 in 3.0 mi SW 8.1 mph - N/A   Overcast
10:35 AM 55.4 °F - 55.4 °F 100% 29.92 in 5.0 mi SSW 4.6 mph - N/A   Overcast
10:55 AM 55.4 °F - 55.4 °F 100% 29.92 in 7.0 mi South 4.6 mph - N/A   Overcast
11:15 AM 55.4 °F - 55.4 °F 100% 29.92 in 7.0 mi South 6.9 mph - N/A   Overcast
11:35 AM 55.4 °F - 55.4 °F 100% 29.92 in 5.0 mi SSW 3.5 mph - N/A Rain , Thunderstorm Thunderstorms and Rain
11:55 AM 53.6 °F - 53.6 °F 100% 29.93 in 3.0 mi NNW 6.9 mph - N/A Rain , Thunderstorm Thunderstorms and Rain
12:15 PM 53.6 °F - 53.6 °F 100% 29.93 in 2.0 mi NNW 5.8 mph - N/A Rain Rain
12:35 PM 53.6 °F - 53.6 °F 100% 29.92 in 1.8 mi North 4.6 mph - N/A   Light Drizzle
12:55 PM 53.6 °F - 53.6 °F 100% 29.91 in 2.5 mi North 5.8 mph - N/A   Light Drizzle
1:15 PM 53.6 °F - 53.6 °F 100% 29.91 in 10.0 mi Calm Calm - N/A Thunderstorm Overcast
1:35 PM 53.6 °F - 53.6 °F 100% 29.90 in 3.0 mi Calm Calm - N/A Rain Light Rain
1:55 PM 53.6 °F - 53.6 °F 100% 29.91 in 3.0 mi NNW 5.8 mph - N/A   Light Drizzle
2:15 PM 53.6 °F - 53.6 °F 100% 29.91 in 4.0 mi NNW 8.1 mph - N/A Rain Light Rain
2:35 PM 53.6 °F - 53.6 °F 100% 29.91 in 5.0 mi North 5.8 mph - N/A   Overcast
2:55 PM 53.6 °F - 53.6 °F 100% 29.91 in 10.0 mi North 4.6 mph - N/A Rain Rain
3:15 PM 53.6 °F - 53.6 °F 100% 29.93 in 10.0 mi NW 8.1 mph - N/A Rain Light Rain
3:35 PM 53.6 °F - 53.6 °F 100% 29.93 in 10.0 mi North 6.9 mph - N/A Rain Light Rain
3:55 PM 51.8 °F - 51.8 °F 100% 29.94 in 10.0 mi North 10.4 mph - N/A Rain Light Rain
4:15 PM 51.8 °F - 51.8 °F 100% 29.94 in 10.0 mi North 9.2 mph - N/A   Overcast
4:35 PM 51.8 °F - 51.8 °F 100% 29.94 in 10.0 mi North 9.2 mph - N/A   Light Drizzle
4:55 PM 51.8 °F - 51.8 °F 100% 29.95 in 10.0 mi North 12.7 mph - N/A   Overcast
5:35 PM 51.8 °F - 51.8 °F 100% 29.98 in 7.0 mi NNW 11.5 mph - N/A   Overcast
5:55 PM 50.0 °F - 50.0 °F 100% 29.99 in 5.0 mi NNW 12.7 mph 17.3 mph N/A   Overcast
6:15 PM 50.0 °F - 50.0 °F 100% 30.00 in 7.0 mi NNW 13.8 mph - N/A   Overcast
6:35 PM 50.0 °F - 50.0 °F 100% 30.00 in 7.0 mi North 9.2 mph 18.4 mph N/A   Overcast
6:55 PM 50.0 °F - 50.0 °F 100% 30.02 in 7.0 mi North 11.5 mph 20.7 mph N/A   Overcast
7:15 PM 50.0 °F - 50.0 °F 100% 30.03 in 7.0 mi North 11.5 mph 16.1 mph N/A   Overcast
7:35 PM 50.0 °F - 50.0 °F 100% 30.05 in 7.0 mi North 12.7 mph 17.3 mph N/A   Overcast
7:55 PM 50.0 °F - 48.2 °F 94% 30.06 in 7.0 mi North 9.2 mph - N/A   Overcast
8:15 PM 50.0 °F - 46.4 °F 87% 30.07 in 7.0 mi North 10.4 mph 18.4 mph N/A   Overcast
8:35 PM 48.2 °F - 42.8 °F 82% 30.07 in 10.0 mi North 12.7 mph 18.4 mph N/A   Overcast
8:55 PM 48.2 °F - 42.8 °F 82% 30.08 in 10.0 mi NNE 9.2 mph 17.3 mph N/A   Overcast
9:15 PM 46.4 °F 42.9 °F 42.8 °F 87% 30.08 in 10.0 mi North 6.9 mph - N/A   Mostly Cloudy
9:35 PM 46.4 °F 42.9 °F 42.8 °F 87% 30.09 in 10.0 mi North 6.9 mph - N/A   Scattered Clouds
9:55 PM 46.4 °F 41.9 °F 41.0 °F 81% 30.10 in 7.0 mi North 9.2 mph 17.3 mph N/A   Scattered Clouds
10:15 PM 44.6 °F 38.8 °F 41.0 °F 87% 30.11 in 7.0 mi North 11.5 mph 17.3 mph N/A   Scattered Clouds
10:35 PM 44.6 °F 41.4 °F 39.2 °F 81% 30.11 in 7.0 mi North 5.8 mph - N/A   Scattered Clouds
10:55 PM 44.6 °F 39.7 °F 39.2 °F 81% 30.12 in 7.0 mi North 9.2 mph - N/A   Scattered Clouds
11:15 PM 42.8 °F 38.0 °F 39.2 °F 87% 30.12 in 7.0 mi North 8.1 mph - N/A   Clear
11:35 PM 42.8 °F 38.6 °F 37.4 °F 81% 30.13 in 7.0 mi North 6.9 mph - N/A   Clear
11:55 PM 41.0 °F 35.8 °F 37.4 °F 87% 30.14 in 7.0 mi North 8.1 mph - N/A   Clear